Regional Weather Roundup
Issued by NWS Goodland, KS

Home | Current Version | Previous Version | Graphics & Text | Print | Product List | Glossary On
Versions: 1 2 3 4 5 6 7 8 9 10 11 12 13 14 15 16 17 18 19 20 21 22 23 24 25 26 27 28 29 30 31 32 33 34 35 36 37 38 39 40 41 42 43 44 45 46 47 48 49 50
000
ASUS43 KGLD 272259
RWRGLD

GOODLAND FORECAST AREA HOURLY WEATHER ROUNDUP
NATIONAL WEATHER SERVICE GOODLAND KS
500 PM MDT WED APR 27 2016

...OFFICIAL OBSERVATIONS...

CITY           SKY/WX    TMP DP  RH WIND       PRES   REMARKS
GOODLAND KS    MOSUNNY   54  31  41 NW24G32   29.72S
HILL CITY KS   SUNNY     55  37  50 NW26G40   29.70R
IMPERIAL NEB   LGT RAIN  46  37  71 N18       29.74R
MCCOOK NEB     CLOUDY    50  36  58 NW29G38   29.70S
AKRON CO       SUNNY     53  26  35 N29G39    29.76S
BURLINGTON CO  SUNNY     57  28  33 NW24G31   29.75R
LIMON CO       MOSUNNY   51  28  41 N16       29.79S
$$

...UNOFFICIAL OBSERVATIONS...

CITY           SKY/WX    TMP DP  RH WIND       PRES   REMARKS
COLBY KS       MOSUNNY   55  43  62 NW17G25   29.73S
GOVE KS          N/A     57  32  39 MISG        N/A
LENORA KS        N/A     51  32  48 MISG        N/A
NORTON KS      MOSUNNY   50  36  57 W25G39    29.67S
SHARON SPRINGS   N/A     59  35  40 N18         N/A
YUMA CO          N/A     52  30  42 N17G24      N/A
$$




USA.gov is the U.S. government's official web portal to all federal, state and local government web resources and services.